Regional Weather Roundup
Issued by NWS

Home | Current Version | Previous Version | Graphics & Text | Print | Product List | Glossary On
Versions: 1 2 3 4 5 6 7 8 9 10 11 12 13 14 15 16 17 18 19 20 21 22 23 24 25 26 27 28 29 30 31 32 33 34 35 36 37 38 39 40 41 42 43 44 45 46 47 48 49 50
000
ASUS43 KOAX 230010
RWRNE

WEATHER ROUNDUP FOR NEBRASKA
NATIONAL WEATHER SERVICE OMAHA NE
700 PM CDT MON SEP 22 2014

NOTES: SATELLITE DATA IS BEING USED TO AUGMENT CLOUD COVER ABOVE
       12000 FEET.
       "FAIR" INDICATES FEW OR NO CLOUDS BELOW 12,000 FEET WITH NO
       SIGNIFICANT WEATHER AND/OR OBSTRUCTIONS TO VISIBILITY.

  * THESE STATIONS DO NOT REPORT WEATHER SUCH AS RAIN...SNOW OR FOG.

NEZ001>004-019>022-054>056-230100-
NEBRASKA PANHANDLE

CITY           SKY/WX    TMP DP  RH WIND       PRES   REMARKS
SCOTTSBLUFF    PTCLDY    69  58  67 SE7       30.04F
6HR MIN TEMP:  61; 6HR MAX TEMP:  79; 6HR PCP:  0.06;

ALLIANCE       MOCLDY    65  57  75 SE10      30.05F
6HR MIN TEMP:  59; 6HR MAX TEMP:  73; 6HR PCP: TRACE;

CHADRON        CLOUDY    68  56  65 SW5       29.99S
6HR MIN TEMP:  67; 6HR MAX TEMP:  76; 6HR PCP: TRACE;

KIMBALL        MOCLDY    71  52  51 NE9       30.07S
SIDNEY         MOCLDY    69  53  56 S18G24    30.08R
6HR MIN TEMP:  67; 6HR MAX TEMP:  82;

$$

NEZ057>060-069>072-079>082-230100-
SOUTHWEST NEBRASKA

CITY           SKY/WX    TMP DP  RH WIND       PRES   REMARKS
NORTH PLATTE   LGT RAIN  58  55  90 SE10      30.11F
6HR MIN TEMP:  58; 6HR MAX TEMP:  68; 6HR PCP:  0.27;

IMPERIAL       MOCLDY    71  49  45 SE18      30.08S
6HR MIN TEMP:  61; 6HR MAX TEMP:  75; 6HR PCP:  0.07;

LEXINGTON      LGT RAIN  63  56  78 E9        30.13F
MCCOOK         CLOUDY    74  45  35 SE13      30.09F
6HR MIN TEMP:  72; 6HR MAX TEMP:  78; 6HR PCP: TRACE;

OGALLALA       MOCLDY    65  56  73 E7        30.07S
$$

NEZ005>010-023>029-035>040-094-230100-
NORTH CENTRAL NEBRASKA

CITY           SKY/WX    TMP DP  RH WIND       PRES   REMARKS
VALENTINE      CLOUDY    64  52  64 S21       30.07F
6HR MIN TEMP:  63; 6HR MAX TEMP:  73; 6HR PCP: TRACE;

AINSWORTH      DRIZZLE   58  53  83 S18G24    30.09F
BROKEN BOW     LGT RAIN  61  55  81 S5        30.13F
6HR MIN TEMP:  61; 6HR MAX TEMP:  75; 6HR PCP:  0.12;

O`NEILL        CLOUDY    70  52  53 S9        30.12F
ORD            CLOUDY    68  50  52 S9        30.13R
6HR MIN TEMP:  68; 6HR MAX TEMP:  74;

THEDFORD       CLOUDY    59  55  87 SE15      30.11F
$$

NEZ041-046>049-061>064-073>077-083>087-230100-
SOUTH CENTRAL NEBRASKA

CITY           SKY/WX    TMP DP  RH WIND       PRES   REMARKS
GRAND ISLAND   CLOUDY    69  48  47 S9        30.16S
6HR MIN TEMP:  69; 6HR MAX TEMP:  75;

AURORA         CLOUDY    69  47  44 S6        30.16S
HASTINGS       CLOUDY    69  46  43 SE10      30.15F
6HR MIN TEMP:  69; 6HR MAX TEMP:  75;

HEBRON         MOCLDY    67  48  50 SE5       30.17F
HOLDREGE       CLOUDY    68  48  48 SE9       30.13F
KEARNEY *      CLOUDY    68  46  45 SE9       30.15F
YORK           MOCLDY    66  50  55 SE7       30.16S
$$

NEZ011>018-030>034-042>045-230100-
NORTHEAST NEBRASKA

CITY           SKY/WX    TMP DP  RH WIND       PRES   REMARKS
NORFOLK        MOCLDY    69  49  48 SE9       30.14F
6HR MIN TEMP:  69; 6HR MAX TEMP:  75;

ALBION         CLOUDY    67  52  58 SE6       30.15S
BLAIR          PTCLDY    68  50  53 SE6       30.18F
COLUMBUS *     CLOUDY    68  48  49 SE5       30.17S
FREMONT        MOCLDY    69  49  49 SE5       30.17F
TEKAMAH        PTCLDY    68  51  54 SE7       30.17F
6HR MIN TEMP:  68; 6HR MAX TEMP:  77;

WAYNE          MOCLDY    65  53  65 SE6       30.16S
$$

NEZ050>053-065>068-078-088>093-230100-
SOUTHEAST NEBRASKA

CITY           SKY/WX    TMP DP  RH WIND       PRES   REMARKS
LINCOLN        MOCLDY    69  49  48 S8        30.17F
6HR MIN TEMP:  69; 6HR MAX TEMP:  76;

OMAHA EPPLEY   MOCLDY    70  50  49 SE8       30.18F
6HR MIN TEMP:  69; 6HR MAX TEMP:  74;

BEATRICE       MOCLDY    70  47  44 SE5       30.17F
FALLS CITY     PTCLDY    68  51  54 SW5       30.19F
6HR MIN TEMP:  68; 6HR MAX TEMP:  75;

NEBRASKA CITY    N/A     67  41  38 SE3       30.19F
PLATTSMOUTH    CLEAR     67  49  52 S3        30.19S
$$

NEZ044-045-051>053-067-230100-
OMAHA AREA

CITY           SKY/WX    TMP DP  RH WIND       PRES   REMARKS
OMAHA EPPLEY   MOCLDY    70  50  49 SE8       30.18F
6HR MIN TEMP:  69; 6HR MAX TEMP:  74;

BLAIR          PTCLDY    68  50  53 SE6       30.18F
FREMONT        MOCLDY    69  49  49 SE5       30.17F
MILLARD        PTCLDY    70  50  50 SE5       30.18S
OFFUTT AFB     CLEAR     67  55  64 SE6       30.18F
PLATTSMOUTH    CLEAR     67  49  52 S3        30.19S
WAHOO          FAIR      66  52  60 SE5       30.17S
$$


USA.gov is the U.S. government's official web portal to all federal, state and local government web resources and services.